Regional Weather Roundup
Issued by NWS Sioux Falls, SD

Home | Current Version | Previous Version | Graphics & Text | Print | Product List | Glossary Off
Versions: 1 2 3 4 5 6 7 8 9 10 11 12 13 14 15 16 17 18 19 20 21 22 23 24 25 26 27 28 29 30 31 32 33 34 35 36 37 38 39 40 41 42 43 44 45 46 47 48 49 50

000
ASUS43 KFSD 191802
RWRFSD

WEATHER ROUNDUP FOR SE SOUTH DAKOTA/SW MINNESOTA/NW IOWA
NATIONAL WEATHER SERVICE SIOUX FALLS SD
1200 PM CST THU JAN 19 2017

NOTE: "FAIR" INDICATES FEW OR NO CLOUDS BELOW 12,000 FEET WITH NO
SIGNIFICANT WEATHER AND OR OBSTRUCTIONS TO VISIBILITY.


SDZ038>040-050-052>070-191900-
SOUTHEAST SOUTH DAKOTA

CITY           SKY/WX    TMP DP  RH WIND       PRES   REMARKS
BROOKINGS      FOG       35  33  92 S16       29.64F VSB 1/4 WCI  25
CHAMBERLAIN    CLOUDY    39  38  94 S9        29.57F
6HR MIN TEMP:  31; 6HR MAX TEMP:  41;

HURON          FOG       34  34 100 S17       29.59F VSB 1/2 WCI  23
6HR MIN TEMP:  33; 6HR MAX TEMP:  35;

MADISON        MOCLDY    32  32 100 S17         N/A  WCI  21
MITCHELL       FOG       37  37 100 S16       29.62F VSB 1/4
6HR MIN TEMP:  32; 6HR MAX TEMP:  37;

SIOUX FALLS    FOG       36  36 100 S14       29.68F VSB 1/4
6HR MIN TEMP:  35; 6HR MAX TEMP:  36;

WINNER         FAIR      43  33  68 S15       29.55F
YANKTON        CLOUDY    39  36  87 SE10      29.67F
$$

MNZ071-072-080-081-089-090-097-098-191900-
SOUTHWEST MINNESOTA

CITY           SKY/WX    TMP DP  RH WIND       PRES   REMARKS
FAIRMONT       CLOUDY    35  34  96 S12       29.77F FOG     WCI  27
JACKSON        SUNNY     36  32  87 S14       29.73F FOG
LUVERNE        CLOUDY    36  34  93 S10       29.71F FOG
MARSHALL       SUNNY     41  36  82 S16       29.68F
6HR MIN TEMP:  36; 6HR MAX TEMP:  42;

MONTEVIDEO     SUNNY     43  36  75 S10G16    29.69F
PIPESTONE      SNOW      36  36 100 S12       29.67F VSB<1/4
REDWOOD FALLS  PTSUNNY   36  32  85 SE14      29.71F FOG
TRACY          MOSUNNY   41  37  86 S15G21    29.69F
WINDOM         PTSUNNY   37  36  93 S10       29.73F
WORTHINGTON    FOG       36  35  96 S14       29.72  VSB 1/2
$$

IAZ001>003-012>014-020>022-031-032-NEZ013-014-SDZ071-191900-
NORTHWEST IOWA

CITY           SKY/WX    TMP DP  RH WIND       PRES   REMARKS
CHEROKEE       CLOUDY    38  37  98 S8        29.75F FOG
DENISON        CLOUDY    39  39 100 S8        29.73F
ESTHERVILLE    CLOUDY    35  35 100 S12       29.75F WCI  27
LE MARS        CLOUDY    39  37  93 S13G20    29.73F FOG
ORANGE CITY    CLOUDY    37  37 100 S13       29.72F FOG
SHELDON        CLOUDY    37  37 100 S12       29.71F FOG
SIOUX CITY     FOG       38  37  97 S10       29.74F VSB 1/2
6HR MIN TEMP:  32; 6HR MAX TEMP:  38;

SPENCER        CLOUDY    37  35  92 S7        29.75F
6HR MIN TEMP:  32; 6HR MAX TEMP:  37;

STORM LAKE     CLOUDY    36  36 100 SE12      29.75F FOG
$$

ABBREVIATIONS USED IN REMARKS
   TC - TEMPERATURE IN CELSIUS
  WCI - WIND CHILL INDEX
   HX - HEAT INDEX
  VSB - VISIBILITY





USA.gov is the U.S. government's official web portal to all federal, state and local government web resources and services.